Regional Weather Roundup
Issued by NWS

Home | Current Version | Previous Version | Graphics & Text | Print | Product List | Glossary On
Versions: 1 2 3 4 5 6 7 8 9 10 11 12 13 14 15 16 17 18 19 20 21 22 23 24 25 26 27 28 29 30 31 32 33 34 35 36 37 38 39 40 41 42 43 44 45 46 47 48 49 50
000
ASUS43 KLOT 142206
RWRIL

ILLINOIS REGIONAL WEATHER ROUNDUP
NATIONAL WEATHER SERVICE CHICAGO/ROMEOVILLE IL
500 PM CDT SUN SEP 14 2014

NOTE: "FAIR" INDICATES FEW OR NO CLOUDS BELOW 12,000 FEET WITH NO
SIGNIFICANT WEATHER AND/OR OBSTRUCTIONS TO VISIBILITY.

* THESE STATIONS ARE NOT UNDER NWS QUALITY CONTROL. THEY ALSO MAY NOT
  REPORT WEATHER SUCH AS PRECIPITATION OR FOG.

ILZ001-002-007-009-015-016-024-142300-
NORTHWEST ILLINOIS

CITY           SKY/WX    TMP DP  RH WIND       PRES   REMARKS
MOLINE         SUNNY     67  45  45 SW7       30.17F
STERLING*      SUNNY     68  45  42 W6        30.17F
SAVANNA*       MOSUNNY   67  44  43 S8        30.17S
$$

ILZ003-004-008-010-011-017-018-142300-
NORTH CENTRAL ILLINOIS

CITY           SKY/WX    TMP DP  RH WIND       PRES   REMARKS
ROCKFORD       MOSUNNY   66  43  43 SW12      30.18F
FREEPORT*      SUNNY     64  46  52 SW8       30.19S
ROCHELLE*      SUNNY     65  43  43 SW9       30.18F
DE KALB*       SUNNY     63  44  51 SW9       30.19S
PERU*          SUNNY     66  44  44 SW5       30.19F
$$

ILZ005-006-012>014-019>023-142300-
NORTHEAST ILLINOIS

CITY           SKY/WX    TMP DP  RH WIND       PRES   REMARKS
CHICAGO-OHARE  MOSUNNY   64  42  44 SW12      30.18F
CHICAGO-MIDWAY MOSUNNY   67  43  41 SW13      30.19F
AURORA         SUNNY     66  42  41 SW9       30.19F
LANSING*       SUNNY     65  44  48 SW9       30.20S
JOLIET*        SUNNY     66  41  40 SW6       30.20F
WAUKEGAN       SUNNY     63  45  51 SW7       30.17F
DUPAGE AIRPORT SUNNY     66  43  43 SW7       30.18F
KANKAKEE*      SUNNY     67  45  45 W7        30.21S
WHEELING       SUNNY     66  43  43 SW8       30.19F
MORRIS*        SUNNY     67  44  42 SW6       30.19F
ROMEOVILLE*    SUNNY     65  41  41 SW8       30.19F
NORTHERLY ISL    N/A     65  40  39 W8          N/A
$$

LMZ740>746-142300-
SOUTHERN LAKE MICHIGAN

STATION/POSITION SKY/WX   TEMP    WIND        PRES    VSBY  WAVE
                          AIR SEA DIR/SP/G                  HT/PER
                          (F)     (DEG/KT/KT) (MB)    (MI)  (FT/S)
SOUTHERN BUOY              59 65  190/ 12/ 14 1022.6F         2/ 4
WAUKEGAN HARBOR            64     210/ 11/ 16   N/A
HARRISON CRIB              63     220/ 11/ 13   N/A
BURNHAM HARBOR             65     210/  7/ 11   N/A
CALUMET HARBOR             65     240/  6/  9 1021.2S
MICHIGAN CITY              63     260/  6/  7   N/A
MICHIGAN CITY 6N           63 65  250/  4/  6   N/A           1
ST. JOSEPH                 61 67  260/  6/  8   N/A           1/ 2
$$

ILZ025>027-034>036-040-047-049-050-058-095>099-142300-
WEST-CENTRAL ILLINOIS

CITY           SKY/WX    TMP DP  RH WIND       PRES   REMARKS
QUINCY         SUNNY     68  43  40 SW6       30.18F
GALESBURG*     SUNNY     68  46  45 S6        30.18F
MACOMB*        SUNNY     67  43  41 S7        30.20F
JACKSONVILLE*  SUNNY     71  45  39 SE3       30.20F
PITTSFIELD*    SUNNY     69  45  41 CALM      30.20F
$$

ILZ028>032-037-038-041>044-048-051>054-059>061-142300-
CENTRAL ILLINOIS

CITY           SKY/WX    TMP DP  RH WIND       PRES   REMARKS
PONTIAC        SUNNY     70  39  32 S6        30.20S
DECATUR        SUNNY     70  44  39 CALM      30.20F
PEORIA         SUNNY     69  45  41 SW6       30.20S
LACON*         SUNNY     65  44  45 S3        30.19F
LINCOLN*       SUNNY     71  41  33 SW5       30.18S
SPRINGFIELD    SUNNY     69  43  38 SE5       30.20F
TAYLORVILLE    SUNNY     68  43  40 SE3       30.20F
$$

ILZ033-039-045-046-055>057-062-063-142300-
EAST-CENTRAL ILLINOIS

CITY           SKY/WX    TMP DP  RH WIND       PRES   REMARKS
CHAMPAIGN      SUNNY     68  41  37 VRB3      30.21S
DANVILLE*      SUNNY     66  46  47 CALM      30.18F
RANTOUL*       SUNNY     69  38  32 SE3       30.21F
MATTOON        SUNNY     68  44  42 CALM      30.20F
PARIS*         SUNNY     69  45  43 CALM      30.20F
$$

ILZ079-100>102-142300-
SOUTHWEST ILLINOIS

CITY           SKY/WX    TMP DP  RH WIND       PRES   REMARKS
ALTON          SUNNY     68  37  32 CALM      30.21S
CAHOKIA*       SUNNY     71  45  39 CALM      30.20F
SPARTA*        SUNNY     69  44  39 CALM      30.21F
$$

ILZ064>066-069>071-074>076-080>082-084>086-088>090-092>094-142300-
SOUTH-CENTRAL ILLINOIS

CITY           SKY/WX    TMP DP  RH WIND       PRES   REMARKS
CARBONDALE     SUNNY     71  46  40 CALM      30.20F
CAIRO*         SUNNY     73  51  46 CALM      30.20S
EFFINGHAM*     SUNNY     69  42  37 CALM      30.21S
MARION         SUNNY     70  48  46 S7        30.20F
MT. VERNON     SUNNY     68  46  45 CALM      30.21F
CENTRALIA*     SUNNY     69  45  42 SW3       30.21S
SALEM*         SUNNY     71  48  43 CALM      30.21S
METROPOLIS*    SUNNY     73  51  45 SW3       30.19S
$$

ILZ067-068-072-073-078-083-087-091-142300-
SOUTHEAST ILLINOIS

CITY           SKY/WX    TMP DP  RH WIND       PRES   REMARKS
LAWRENCEVILLE  SUNNY     71  47  42 NW5       30.20F
FLORA*         SUNNY     69  41  36 CALM      30.21F
FAIRFIELD*     SUNNY    N/A N/A N/A CALM      30.20F
HARRISBURG*    SUNNY     71  46  41 NW3       30.21F
ROBINSON*      SUNNY     71  47  43 CALM      30.21F
CARMI*         SUNNY     73  47  39 CALM      30.20S
$$

ABBREVIATIONS USED IN REMARKS
   TC - TEMPERATURE IN CELSIUS
  WCI - WIND CHILL INDEX
   HX - HEAT INDEX
  VSB - VISIBILITY
$$



USA.gov is the U.S. government's official web portal to all federal, state and local government web resources and services.